Regional Weather Roundup
Issued by NWS

Home | Current Version | Previous Version | Graphics & Text | Print | Product List | Glossary On
Versions: 1 2 3 4 5 6 7 8 9 10 11 12 13 14 15 16 17 18 19 20 21 22 23 24 25 26 27 28 29 30 31 32 33 34 35 36 37 38 39 40 41 42 43 44 45 46 47 48 49 50
000
ASUS43 KLMK 222010
RWRKY
KENTUCKY REGIONAL WEATHER ROUNDUP
NATIONAL WEATHER SERVICE LOUISVILLE KY
400 PM EDT MON SEP 22 2014

NOTE "FAIR" INDICATES FEW OR NO CLOUDS BELOW 12,000 FEET
WITH NO SIGNIFICANT WEATHER AND/OR OBSTRUCTIONS TO VISIBILITY.

KYZ001>023-026-027-061>063-070>075-222100-
WESTERN AND SOUTH CENTRAL KENTUCKY

CITY           SKY/WX    TMP DP  RH WIND       PRES   REMARKS
PADUCAH        SUNNY     77  46  33 N14       30.20F
HENDERSON      SUNNY     70  43  37 N8        30.22F
OWENSBORO      SUNNY     71  45  39 N9        30.22F
HOPKINSVILLE   SUNNY     73  43  34 N8        30.19F
BOWLING GREEN  SUNNY    N/A N/A N/A VRB7      30.20S
GLASGOW        SUNNY     71  42  35 NW3       30.19F
$$

KYZ024-025-028>034-038-045-046-053-222100-
NORTH CENTRAL KENTUCKY

CITY           SKY/WX    TMP DP  RH WIND       PRES   REMARKS
LOUISVILLE/SDF SUNNY     68  45  43 N8        30.21F
LOUISVILLE/LOU SUNNY     67  43  41 N9G17     30.22F
FORT KNOX      SUNNY     66  45  45 NW8       30.21R
$$

KYZ035>037-039>044-047>052-055>060-089>105-222100-
NORTHEAST KENTUCKY

CITY           SKY/WX    TMP DP  RH WIND       PRES   REMARKS
LEXINGTON      SUNNY     67  44  43 NW6       30.20F
COVINGTON      MOSUNNY   64  40  41 N5        30.21F
FRANKFORT      SUNNY     67  42  40 VRB7      30.20F
$$

KYZ054-064>069-076>088-106>120-222100-
SOUTHEAST KENTUCKY

CITY           SKY/WX    TMP DP  RH WIND       PRES   REMARKS
JACKSON        PTSUNNY   65  46  50 CALM      30.19S
LONDON         SUNNY     68  47  46 VRB6      30.20S
SOMERSET       SUNNY     68  43  40 NE8G16    30.20F
MIDDLESBORO    SUNNY     68  49  51 NE7       30.17S
MONTICELLO     CLEAR     72  46  39 NW9       30.20F
$$



USA.gov is the U.S. government's official web portal to all federal, state and local government web resources and services.